Regional Weather Roundup
Issued by NWS

Home | Current Version | Previous Version | Text Only | Print | Product List | Glossary Off
Versions: 1 2 3 4 5 6 7 8 9 10 11 12 13 14 15 16 17 18 19 20 21 22 23 24 25 26 27 28 29 30 31 32 33 34 35 36 37 38 39 40 41 42 43 44 45 46 47 48 49 50

366
ASUS43 KLOT 262108
RWRIL

ILLINOIS REGIONAL WEATHER ROUNDUP
NATIONAL WEATHER SERVICE CHICAGO/ROMEOVILLE IL
400 PM CDT THU MAY 26 2016

NOTE: "FAIR" INDICATES FEW OR NO CLOUDS BELOW 12,000 FEET WITH NO
SIGNIFICANT WEATHER AND/OR OBSTRUCTIONS TO VISIBILITY.

* THESE STATIONS ARE NOT UNDER NWS QUALITY CONTROL. THEY ALSO MAY NOT
  REPORT WEATHER SUCH AS PRECIPITATION OR FOG.

ILZ001-002-007-009-015-016-024-262200-
NORTHWEST ILLINOIS

CITY           SKY/WX    TMP DP  RH WIND       PRES   REMARKS
MOLINE         CLOUDY    87  64  46 NW7       29.81F HX  88
STERLING*      MOSUNNY   85  64  49 W8G16     29.83F HX  86
SAVANNA*       MOSUNNY   85  60  43 SW5       29.82F HX  85
$$

ILZ003-004-008-010-011-017-018-262200-
NORTH CENTRAL ILLINOIS

CITY           SKY/WX    TMP DP  RH WIND       PRES   REMARKS
ROCKFORD       CLOUDY    83  63  50 W8        29.86F HX  84
FREEPORT*      CLOUDY    82  63  51 SW6G18    29.86F HX  83
ROCHELLE*      MOSUNNY   82  67  59 SW12      29.85F HX  84
DE KALB*       SUNNY     81  67  60 W12       29.87F HX  84
$$

ILZ005-006-012>014-019>023-262200-
NORTHEAST ILLINOIS

CITY           SKY/WX    TMP DP  RH WIND       PRES   REMARKS
CHICAGO-OHARE  PTSUNNY   82  64  54 SW13G18   29.84F HX  83
CHICAGO-MIDWAY PTSUNNY   83  61  47 SW13      29.85F HX  83
AURORA         SUNNY     83  65  54 SW10      29.86F HX  85
LANSING*       SUNNY     81  62  52 SW12      29.87F HX  82
JOLIET*        CLOUDY    84  66  53 S5        29.85F HX  86
WAUKEGAN       SUNNY     82  64  54 SW13G18   29.83F HX  83
DUPAGE AIRPORT SUNNY     82  63  52 W10       29.85F HX  83
KANKAKEE*      MOSUNNY   83  65  54 SW9       29.88F HX  84
WHEELING       MOSUNNY   82  62  50 SW8       29.85F HX  83
MORRIS*        MOSUNNY   86  62  43 SW9       29.84F HX  87
ROMEOVILLE*    SUNNY     84  59  42 SW7       29.85F HX  83
NORTHERLY ISL    N/A     81  58  45 SW7         N/A  HX  81
NORTHERLY ISL    N/A     81  58  45 SW7         N/A  HX  81
$$

LMZ740>746-262200-
SOUTHERN LAKE MICHIGAN

STATION/POSITION SKY/WX   TEMP    WIND        PRES    VSBY  WAVE
                          AIR SEA DIR/SP/G                  HT/PER
                          (F)     (DEG/KT/KT) (MB)    (MI)  (FT/S)
SOUTHERN BUOY              56 50  160/ 10/ 10 1010.9F         1/ 3
WILMETTE HARBOR            71 57  270/  6/ 10   N/A           1/ 2
HARRISON CRIB              77     210/ 10/ 12   N/A
BURNHAM HARBOR             82     230/  6/ 16   N/A
CALUMET HARBOR             80     200/ 10/ 15 1011.2F
BURNS HARBOR               78     210/ 15/ 20 1012.5R
MICHIGAN CITY              69     250/ 11/ 12   N/A
MICHIGAN CITY 6N           68 61  310/  2/  2   N/A           1
ST. JOSEPH                 63 63  320/  4/  4   N/A           1
$$

ILZ025>027-034>036-040-047-049-050-058-095>099-262200-
WEST-CENTRAL ILLINOIS

CITY           SKY/WX    TMP DP  RH WIND       PRES   REMARKS
QUINCY         MOSUNNY   83  64  52 SE10      29.81F HX  84
GALESBURG*     PTSUNNY   83  62  50 SW6       29.85F HX  83
MACOMB*        MOSUNNY   83  66  56 S10       29.86F HX  85
JACKSONVILLE*  SUNNY     84  67  56 S12       29.87F HX  87
PITTSFIELD*    SUNNY     84  68  57 S9        29.87F HX  87
$$

ILZ028>032-037-038-041>044-048-051>054-059>061-262200-
CENTRAL ILLINOIS

CITY           SKY/WX    TMP DP  RH WIND       PRES   REMARKS
PONTIAC        MOSUNNY   87  62  43 SW13      29.87F HX  87
BLOOMINGTON    MOSUNNY   85  71  62 S12       29.90F HX  90
DECATUR        PTSUNNY   81  68  64 S16G23    29.91F HX  84
PEORIA         SUNNY     85  65  51 S8        29.86F HX  86
LACON*         SUNNY     84  63  49 S6        29.85F HX  85
LINCOLN*       SUNNY     84  68  58 S9G17     29.89S HX  87
SPRINGFIELD    SUNNY     83  69  62 S12       29.88F HX  86
TAYLORVILLE    CLOUDY    78  68  71 S12       29.91F HX  80
$$

ILZ033-039-045-046-055>057-062-063-262200-
EAST-CENTRAL ILLINOIS

CITY           SKY/WX    TMP DP  RH WIND       PRES   REMARKS
CHAMPAIGN      CLOUDY    82  65  56 SW17      29.92S HX  84
RANTOUL*       CLOUDY    82  67  61 SW14      29.91F HX  84
MATTOON        CLOUDY    74  65  73 S7        29.94S
PARIS*         CLOUDY    76  67  71 SW10      29.95S
$$

ILZ079-100>102-262200-
SOUTHWEST ILLINOIS

CITY           SKY/WX    TMP DP  RH WIND       PRES   REMARKS
ALTON          PTSUNNY   77  68  73 S12       29.93F
BELLEVILLE     CLOUDY    74  68  81 VRB5      29.94R
CAHOKIA*       CLOUDY    77  66  68 S8        29.93S
SPARTA*        CLOUDY    67  65  91 CALM      29.96S
$$

ILZ064>066-069>071-074>076-080>082-084>086-088>090-092>094-262200-
SOUTH-CENTRAL ILLINOIS

CITY           SKY/WX    TMP DP  RH WIND       PRES   REMARKS
CARBONDALE     CLOUDY    66  63  90 S14G25    29.96R THUNDER
CAIRO*         TSTM      65  65  99 E13       30.02F
EFFINGHAM*     CLOUDY    73  68  84 SE3       29.95F
MT. VERNON     CLOUDY    66  63  88 W6        29.97R
CENTRALIA*     CLOUDY    69  67  92 S5        29.95S
SALEM*         CLOUDY    71  65  83 S6        29.95R
METROPOLIS*    TSTM      67  67 100 CALM      30.05R
$$

ILZ067-068-072-073-078-083-087-091-262200-
SOUTHEAST ILLINOIS

CITY           SKY/WX    TMP DP  RH WIND       PRES   REMARKS
LAWRENCEVILLE  CLOUDY    74  66  76 E8        29.95F
FLORA*         CLOUDY    71  67  86 CALM      29.94S
FAIRFIELD*     CLOUDY    68  65  89 W7        29.94R
HARRISBURG*    TSTM      67  64  90 SE12G23   29.97R
ROBINSON*      CLOUDY    73  66  79 S6        29.96F
CARMI*         LGT RAIN  67  65  92 S18       29.93R
$$

ABBREVIATIONS USED IN REMARKS
   TC - TEMPERATURE IN CELSIUS
  WCI - WIND CHILL INDEX
   HX - HEAT INDEX
  VSB - VISIBILITY
$$





USA.gov is the U.S. government's official web portal to all federal, state and local government web resources and services.